Regional Weather Roundup
Issued by NWS

Home | Current Version | Previous Version | Text Only | Print | Product List | Glossary On
Versions: 1 2 3 4 5 6 7 8 9 10 11 12 13 14 15 16 17 18 19 20 21 22 23 24 25 26 27 28 29 30 31 32 33 34 35 36 37 38 39 40 41 42 43 44 45 46 47 48 49 50
000
ASUS42 KFFC 041503
RWRGA
WEATHER ROUNDUP FOR GEORGIA
NATIONAL WEATHER SERVICE PEACHTREE CITY GA
1100 AM EDT FRI SEP 04 2015

NOTE: "FAIR" INDICATES FEW OR NO CLOUDS BELOW 12,000 FEET WITH NO
SIGNIFICANT WEATHER AND/OR OBSTRUCTIONS TO VISIBILITY.

* = USE WITH CAUTION. THE STATIONS MARKED WITH AN ASTERISK MAY NOT
REPORT WEATHER SUCH AS PRECIPITATION, FOG, OR THUNDER AND ARE NOT
QUALITY CONTROLLED BY NWS.

THE REMARK "TC" DENOTES TEMPERATURE READING IN DEGREES CELSIUS.

GAZ001>058-041600-
NORTH GEORGIA

CITY           SKY/WX    TMP DP  RH WIND       PRES   REMARKS
ATLANTA        MOSUNNY   83  69  62 CALM      30.04R
ATHENS         SUNNY     84  69  60 CALM      30.03R
CHAMBLEE       SUNNY     85  70  60 E3        30.04R
PEACHTREE CITY SUNNY     81  70  69 CALM      30.04S
ROME           SUNNY     80  70  71 CALM      30.04R
WEST ATLANTA   SUNNY     81  70  69 CALM      30.04R
GAINESVILLE    SUNNY     83  66  56 VRB7      30.08R
CARTERSVILLE   SUNNY     78  70  76 NE3       30.05R


CITY           SKY/WX    TMP DP  RH WIND       PRES   REMARKS
DALTON*        SUNNY     79  70  73 CALM      30.05S
LAWRENCEVILLE* SUNNY     82  64  54 NE6       30.06R
MARIETTA       PTSUNNY   83  70  66 NE2       30.04S
KENNESAW*      SUNNY     81  70  69 CALM      30.06R
BLAIRSVILLE*     N/A     76  59  55 CALM      30.11S
$$

GAZ059>098-102>109-041600-
CENTRAL GEORGIA

CITY           SKY/WX    TMP DP  RH WIND       PRES   REMARKS
AUGUSTA-BUSH   SUNNY     87  74  64 CALM      29.97S HX  95
AUGUSTA-DANIEL SUNNY     89  74  60 N5        30.00S HX  98
COLUMBUS       SUNNY     84  67  56 N3        30.00F
MACON          SUNNY     86  66  51 W5        30.00S
ROBINS AFB     SUNNY     85  69  59 N3        30.00R


CITY           SKY/WX    TMP DP  RH WIND       PRES   REMARKS
LAGRANGE*      SUNNY     85  76  74 NW5       30.03S HX  95
MILLEDGEVILLE* SUNNY     82  70  65 CALM      30.01R
$$

GAZ099>101-110>166-041600-
SOUTH GEORGIA

CITY           SKY/WX    TMP DP  RH WIND       PRES   REMARKS
SAVANNAH       PTSUNNY   88  74  63 N5        29.98R HX  96
VALDOSTA       SUNNY     86  74  67 CALM      30.00R HX  94
ALMA           MOSUNNY   88  73  61 CALM      29.99R HX  95
ST SIMONS      SUNNY     87  74  64 N7        29.98S HX  95
FT STEWART     MOSUNNY   87  76  69 CALM      29.97R HX  97
ALBANY         SUNNY     86  72  62 N5        30.01S HX  92
HUNTER AFB     MOSUNNY   87  80  78 VRB3      29.96R HX 103
MOODY AFB      MOSUNNY   87  73  63 VRB1      29.98S HX  94
BRUNSWICK      SUNNY     88  73  62 CALM      29.99S HX  96


CITY           SKY/WX    TMP DP  RH WIND       PRES   REMARKS
BAINBRIDGE*    SUNNY     86  72  62 N5        30.00S HX  92
MOULTRIE*      SUNNY     84  73  70 CALM      30.00S HX  91
VIDALIA*       MOSUNNY   86  73  66 CALM      30.00R HX  93
WAYCROSS*      MOSUNNY   87  79  78 CALM      29.99S HX 101
DOUGLAS*       SUNNY     88  73  62 CALM      30.00S HX  96
$$


USA.gov is the U.S. government's official web portal to all federal, state and local government web resources and services.